Regional Weather Roundup
Issued by NWS Newport/Morehead, NC

Current Version | Previous Version | Text Only | Print | Product List | Glossary On
Versions: 1 2 3 4 5 6 7 8 9 10 11 12 13 14 15 16 17 18 19 20 21 22 23 24 25 26 27 28 29 30 31 32 33 34 35 36 37 38 39 40 41 42 43 44 45 46 47 48 49 50
000 ASUS42 KMHX 190813 RWRMHX WEATHER ROUNDUP FOR EASTERN NORTH CAROLINA NATIONAL WEATHER SERVICE NEWPORT/MOREHEAD CITY NC 300 AM EST SUN FEB 19 2017 NOTE: "FAIR" INDICATES FEW OR NO CLOUDS BELOW 12,000 FEET WITH NO SIGNIFICANT WEATHER AND/OR OBSTRUCTIONS TO VISIBILITY NCZ015>017-031-032-045>047-102-103-190900- NORTH COAST CITY SKY/WX TMP DP RH WIND PRES REMARKS EDENTON PTCLDY 59 41 51 SW3 29.89S ELIZABETH CITY CLEAR 56 41 57 SW5 29.87F KITTY HAWK NOT AVBL MANTEO CLOUDY 55 44 67 SW3 29.88F $$ NCZ045>047-081-094-103-104-190900- CENTRAL COAST CITY SKY/WX TMP DP RH WIND PRES REMARKS FRISCO MOCLDY 60 51 72 W8 29.91S HAZE $$ NCZ095-097-098-100-101-190900- SOUTHERN COAST CITY SKY/WX TMP DP RH WIND PRES REMARKS BEAUFORT CLOUDY 57 52 83 W5 29.91F CEDAR ISLAND NOT AVBL JACKSONVILLE CLEAR 56 46 69 W5 29.91S PINEY ISLAND CLOUDY N/A N/A N/A SW3 29.90 WILMINGTON PTCLDY 54 48 80 W7 29.92F $$ NCZ011>013-027>030-043-044-078>080-089-090>093-098-190900- COASTAL PLAIN CITY SKY/WX TMP DP RH WIND PRES REMARKS AHOSKIE N/A 51 42 71 CALM 29.88S CLINTON PTCLDY 51 45 79 CALM 29.92F ELIZABETHTOWN PTCLDY 54 46 73 CALM 29.92F GOLDSBORO CLEAR 53 45 74 W5 29.89F GREENVILLE PTCLDY 50 39 66 SW5 29.92S HAVELOCK PTCLDY 56 48 74 SW5 29.91F KENANSVILLE NOT AVBL KINSTON CLEAR 53 41 65 CALM 29.91F NEW BERN CLOUDY 56 44 64 W3 29.91F RICHLANDS CLEAR 49 45 86 CALM 29.92S ROCKY MOUNT CLEAR 52 45 77 SW5 29.89F WASHINGTON CLOUDY 55 42 61 SW6 29.90F WHITEVILLE PTCLDY 52 44 73 CALM 29.92F $$ AMZ130-135-150-152-154-156-158-170-250-252-270-ANZ085-086-088-633-658-670-190900- MARINE OBSERVATIONS STATION/POSITION TIME TEMP WIND PRES WAVE SWELL AIR SEA DIR/SP/G HT/PER HT/PER (UTC) (F) (DEG/KT/KT) (MB) (FT/S) (FT/S) CHESAPEAKE LIGHT NOT AVBL 64 E VA BEACH 0750 54 51 250/ 14/ 16 1010.9 5/ 7 3/ 7 DUCK 0742 58 47 240/ 9/ 12 1011.1 2 E DUCK 0800 47 N/A 1/ 7 OREGON INLET 0748 180/ 6/ 7 N/A 13E OREGON INLT NOT AVBL HATTERAS CG 0742 59 56 230/ 8/ 12 1012.4 DIAMOND BUOY 0750 66 68 240/ 14/ 17 1012.5 4/ 5 2/11 CAPE LOOKOUT 0800 57 250/ 6/ 7 1012.4 BEAUFORT LAB 0742 58 51 260/ 5/ 9 1011.8 30 SE NEW RVR IN 0708 63 260/ 16/ 19 1013.1 30 SE NEW RVR IN 0743 65 N/A 3/ 4 27 SE WRIGHTSVLE 0708 61 63 260/ 10/ 14 1012.0 5 SE WRIGHTSVLE 0708 57 55 280/ 6/ 10 1012.9 225 S CAPE HAT 0750 70 71 200/ 17/ 19 1015.0 4/ 5 2/ 8 41 SE CHARLESTON 0750 62 69 310/ 16/ 17 1012.4 2/ 5 2/ 8 $$

USA.gov is the U.S. government's official web portal to all federal, state and local government web resources and services.